Wind_Speed
16 17 17 17 18 19 19 19 18 19 19 19 20 20 21 22 23 24 24 25 25 23 24 25 20 14 10 7 6 7 10 12 13 15 15 18 22 21 20 18 17 18 18 17 16 16 17 17 18 19 20 21 21 21 22 24 23 22 23 23 23 23 23 22 21 21 20 19 17 16 14 14 15 16 15 14 14 14 15 14 13 12 12 12 12
17 17 18 18 18 18 17 17 17 17 18 19 19 19 20 20 21 22 23 23 23 22 21 20 16 11 9 6 6 7 9 11 12 13 14 16 18 17 17 17 16 17 17 17 16 15 15 17 19 20 20 21 21 21 23 25 24 24 24 25 24 24 23 21 21 20 18 19 18 16 15 15 15 16 15 14 14 15 15 14 13 12 12 13 12
18 18 18 17 16 15 15 15 16 16 17 17 18 17 18 19 20 21 21 22 22 20 19 17 13 9 7 5 5 6 8 9 9 10 11 13 14 13 15 15 15 16 16 16 15 15 15 17 19 20 21 21 22 23 26 27 26 26 24 23 24 23 22 22 21 19 18 20 18 15 16 16 15 16 16 15 15 16 15 14 13 13 13 13 12
18 17 16 14 13 13 13 14 15 15 15 15 16 16 16 18 19 20 20 21 20 18 17 16 13 9 5 4 5 5 5 6 6 7 8 11 12 12 13 14 14 15 16 17 17 17 18 18 19 21 21 21 23 25 27 26 25 23 22 23 22 21 20 21 21 20 20 21 18 15 16 16 15 15 14 14 15 16 16 15 14 14 13 13 12
16 15 13 12 11 11 12 12 13 13 13 14 14 15 15 16 18 19 20 20 19 18 16 15 14 11 6 5 5 5 6 5 4 5 7 9 11 12 12 13 14 15 16 18 19 19 19 21 21 21 21 22 23 23 22 22 22 21 22 23 22 21 21 22 23 23 22 21 18 16 17 17 15 14 14 15 16 17 16 15 14 14 14 13 13
13 12 10 9 10 10 10 11 11 12 12 13 14 14 15 16 17 18 20 20 19 17 16 14 13 12 8 6 6 6 5 5 5 6 8 8 10 12 12 13 14 15 16 19 20 21 20 20 21 20 20 21 23 22 21 21 21 20 22 21 20 20 20 21 22 22 22 21 18 17 18 17 15 15 15 15 15 15 15 15 14 14 14 13 12
11 9 8 8 8 9 8 9 10 11 12 13 14 15 15 16 18 19 20 21 20 18 16 13 11 10 8 6 6 5 4 4 4 6 7 7 8 11 12 13 14 15 16 19 21 20 18 18 19 19 19 20 20 20 21 22 19 18 19 19 19 19 19 21 22 21 20 21 19 17 19 18 15 15 15 14 13 14 15 15 14 13 13 12 11
8 7 7 7 8 7 7 8 10 11 12 13 14 16 16 17 18 19 20 21 20 18 16 11 8 9 8 6 5 4 4 4 4 5 6 7 7 9 11 12 14 15 16 18 18 16 15 18 19 19 19 19 19 19 20 20 18 17 19 21 21 21 20 22 24 22 21 21 19 18 19 18 16 15 15 14 14 14 14 13 12 12 12 12 13
7 7 7 7 7 7 7 8 10 11 12 13 14 15 16 17 18 19 20 20 19 19 16 11 7 8 8 7 6 5 4 5 5 5 6 7 7 9 10 11 13 14 14 15 15 13 14 18 19 17 17 19 20 19 18 19 20 18 19 22 22 22 21 22 22 21 20 21 20 19 20 19 16 15 14 13 13 13 12 12 13 13 14 15 14
8 8 8 7 7 7 8 9 10 12 13 13 14 14 15 16 16 17 18 19 18 18 17 11 7 7 8 7 6 6 6 6 5 6 7 8 9 9 9 11 13 14 12 12 13 11 12 15 16 15 16 18 19 19 19 21 21 20 20 21 21 20 21 21 20 18 20 21 20 19 19 18 15 13 11 10 12 12 11 12 14 14 14 15 14
10 10 9 8 8 8 8 10 11 13 13 13 13 14 14 15 16 16 17 18 18 18 16 12 8 7 8 7 6 6 7 6 5 5 7 9 10 10 10 12 14 13 12 13 12 12 12 13 15 16 17 17 18 19 20 22 23 21 20 20 21 20 20 21 20 19 21 21 19 18 17 16 15 13 12 12 13 12 11 14 15 14 13 13 12
12 11 10 9 8 9 9 10 12 13 13 13 13 13 14 15 16 17 17 17 18 17 16 14 10 8 8 7 6 5 6 5 4 5 7 8 9 9 9 10 11 11 11 12 12 12 13 12 13 16 17 17 19 20 21 21 23 23 21 21 21 21 21 21 20 20 20 19 18 18 17 17 17 15 13 13 14 13 13 14 15 13 13 12 12
13 12 10 9 9 9 10 11 12 13 13 13 13 13 14 15 16 17 17 17 17 16 16 14 12 9 8 7 5 4 4 4 3 4 6 8 9 9 8 8 9 9 10 11 12 14 14 12 12 14 17 19 21 21 21 21 20 19 19 20 21 21 21 21 21 20 19 18 18 19 19 20 19 16 15 15 14 14 13 13 13 13 13 12 12
12 11 10 9 9 9 10 11 12 13 14 14 14 14 14 14 15 17 17 17 16 15 14 15 14 10 6 5 4 4 5 6 5 5 7 7 8 10 9 7 8 8 9 10 11 13 13 13 13 14 17 20 21 19 20 20 18 17 17 18 18 19 21 23 23 21 20 20 21 22 21 21 20 18 17 16 15 14 13 12 12 14 14 14 14
11 11 10 9 9 9 10 11 12 13 14 15 15 15 15 15 16 16 17 16 14 13 13 14 14 12 6 3 3 4 5 6 5 6 7 7 7 8 9 8 8 8 9 9 10 11 12 13 15 15 16 18 18 17 18 19 18 18 19 18 17 17 19 21 20 19 19 21 23 24 23 23 23 21 19 17 15 14 13 13 15 16 17 19 19
11 11 10 9 9 8 9 10 11 13 14 15 16 16 16 16 16 16 17 17 15 13 13 13 14 13 9 6 6 7 6 6 7 6 6 6 6 7 8 8 7 7 8 9 10 10 10 11 13 12 13 14 15 16 17 18 18 18 19 19 19 19 19 20 19 18 19 20 21 21 21 20 21 21 18 15 14 15 15 16 19 20 20 21 21
11 11 10 9 8 7 8 9 11 12 14 15 15 16 16 15 15 15 16 16 15 13 12 13 14 13 12 11 10 10 9 4 3 2 1 3 6 6 8 9 7 6 6 7 9 8 9 10 10 10 11 12 14 15 16 16 18 19 19 18 19 20 21 21 19 19 21 21 20 19 19 17 18 19 17 14 15 17 17 19 21 21 21 21 20
11 11 10 8 6 6 7 8 10 11 13 14 14 15 15 14 13 13 13 13 13 12 11 11 11 10 10 10 8 7 9 8 5 2 1 4 6 6 6 7 7 7 8 8 7 7 9 10 10 10 12 13 14 14 14 15 17 18 18 18 18 20 21 21 19 20 21 21 20 19 19 19 18 19 18 17 18 20 20 21 22 22 22 22 21
10 10 9 8 6 6 7 8 10 11 12 13 13 14 13 12 11 11 11 11 10 11 10 9 8 7 6 7 7 5 5 6 5 6 7 5 6 6 7 8 8 7 5 5 6 4 4 6 7 8 9 11 12 15 16 16 15 15 16 17 18 21 22 21 21 21 21 21 21 21 21 21 21 21 21 21 22 23 23 24 23 23 24 24 24
9 9 8 7 5 5 7 8 9 10 11 12 12 12 11 9 9 10 10 10 9 9 8 7 7 7 7 7 7 4 3 6 9 9 9 7 6 7 8 8 9 6 1 3 4 2 1 1 3 4 6 9 11 14 16 15 13 14 16 19 21 21 22 21 21 22 21 21 22 22 23 23 23 23 24 24 25 25 25 26 26 25 25 26 27
7 7 6 5 4 5 7 8 9 10 11 11 11 10 8 8 8 9 10 11 10 9 8 8 7 7 7 8 8 6 3 5 7 4 3 5 4 5 7 7 7 6 4 3 1 2 4 2 0 3 6 9 9 9 11 12 13 15 17 19 21 22 22 21 21 22 22 23 24 24 25 25 25 26 26 27 28 28 28 28 28 28 28 28 29
5 5 4 3 4 5 6 7 8 9 9 9 9 7 6 6 7 9 9 10 11 12 11 10 10 9 8 8 8 9 7 5 3 2 3 5 7 5 5 6 6 7 9 8 5 2 4 4 2 2 5 8 8 5 6 9 12 15 18 19 21 23 24 23 23 23 24 24 25 26 27 27 28 29 30 30 31 31 31 31 31 32 32 32 31
3 2 2 3 4 5 5 6 7 7 7 7 6 4 3 5 6 8 8 7 9 10 11 11 11 11 11 10 10 9 9 7 5 4 3 5 7 7 7 7 8 9 10 9 7 5 4 7 5 2 1 4 6 6 7 8 10 14 17 20 20 21 23 23 23 22 22 23 24 26 28 29 31 32 33 33 34 34 35 36 37 37 36 34 31
1 1 2 3 4 5 5 5 6 5 5 5 4 2 1 3 4 5 5 6 7 7 7 8 8 9 10 11 10 9 8 7 7 6 6 6 6 6 7 8 8 9 9 8 7 8 8 7 6 5 5 5 5 5 6 8 10 11 14 17 18 19 19 20 20 20 22 24 26 28 29 32 34 35 36 36 37 38 40 41 42 41 39 36 32
2 2 3 3 4 5 5 5 5 4 3 2 2 2 2 2 3 3 5 7 7 6 5 5 6 8 9 9 8 8 8 8 8 8 8 8 9 9 9 10 11 11 12 12 11 9 8 9 10 12 14 14 13 11 11 12 14 14 13 15 16 17 18 19 21 23 26 28 30 31 32 35 37 38 39 40 41 43 45 46 45 44 41 37 35
2 3 3 3 3 4 4 4 4 4 3 2 0 0 1 2 3 5 7 8 7 6 7 8 9 9 10 10 10 10 11 11 11 11 11 11 11 11 11 11 11 12 12 12 13 13 12 12 12 13 15 16 17 17 17 17 18 18 18 19 20 21 22 23 24 26 28 30 32 33 36 38 40 42 43 44 45 45 45 45 44 42 38 35 32
2 2 2 2 2 2 2 3 3 3 3 3 3 2 3 4 5 6 7 8 9 9 9 8 8 8 8 8 8 9 9 10 10 10 9 9 10 10 10 10 10 11 11 12 12 13 14 14 15 16 16 17 18 19 20 21 22 24 25 27 27 28 29 29 30 30 30 31 32 34 36 38 38 39 39 39 40 40 39 38 36 33 31 30 27
2 1 1 1 1 2 2 2 2 2 2 3 3 4 5 5 6 6 6 7 8 9 8 7 6 6 7 8 8 9 9 9 9 8 8 9 9 9 9 10 10 10 10 11 12 13 14 15 16 16 18 19 20 21 22 23 23 24 24 25 26 26 26 27 28 29 29 29 31 32 34 36 36 35 35 34 34 34 33 31 28 25 23 23 22
0 1 1 2 3 3 3 3 2 2 2 3 3 4 4 5 5 5 5 6 6 7 7 7 7 8 8 9 9 10 10 9 8 8 8 8 8 9 9 9 9 9 9 9 10 11 12 14 15 16 16 17 18 20 21 21 22 23 23 24 24 24 24 25 26 27 28 29 29 30 32 33 35 35 34 32 31 28 25 23 23 20 16 15 16
2 1 2 3 4 5 5 5 5 5 5 5 5 5 5 6 6 5 5 6 7 7 7 6 7 9 9 9 9 9 8 8 10 11 11 10 10 10 9 9 10 10 10 10 11 11 12 12 13 14 15 16 16 17 18 19 19 20 21 21 21 21 21 22 23 24 26 27 28 29 29 30 30 30 29 26 24 22 18 15 16 15 13 11 12
2 2 2 4 5 5 5 6 6 6 6 6 6 6 7 7 6 6 7 8 8 8 8 8 9 9 9 9 10 10 10 11 12 12 12 13 13 13 12 12 12 12 12 12 12 13 13 13 13 13 13 14 14 15 15 16 17 17 18 18 18 18 18 18 19 20 21 23 24 25 26 26 25 26 25 22 21 18 14 11 11 12 12 12 13
1 1 1 3 5 5 4 5 5 5 6 6 6 6 7 7 6 7 8 9 10 10 9 9 10 10 11 11 12 13 14 14 14 14 14 14 14 14 15 15 14 14 14 14 14 14 14 14 15 15 15 15 15 15 15 15 15 15 16 16 16 16 15 15 15 16 16 18 18 19 20 21 21 20 20 18 17 15 13 11 11 12 13 13 14
3 3 3 3 4 5 5 5 5 5 6 6 7 7 7 7 7 8 9 10 11 11 10 11 11 12 13 13 13 14 14 14 15 15 15 15 15 15 15 16 16 16 17 16 16 16 16 16 16 16 16 16 17 17 18 18 17 17 17 16 16 16 15 15 14 13 13 13 14 15 16 16 15 14 14 13 14 14 13 12 11 12 13 14 15
4 4 3 3 4 5 5 5 6 6 6 6 6 7 7 7 8 9 10 11 11 11 11 11 12 12 13 13 13 13 13 14 14 14 14 14 15 15 15 15 15 16 16 16 16 17 18 18 18 18 18 18 17 17 17 18 18 18 18 18 18 17 16 16 15 13 12 11 12 12 12 12 11 10 10 11 12 11 10 10 10 11 13 14 16
5 5 5 4 4 5 5 6 6 6 6 6 6 6 7 7 8 9 10 10 10 10 11 11 11 12 12 12 12 12 12 13 13 13 13 13 14 14 15 15 15 16 16 16 17 17 18 18 18 18 18 18 18 18 17 17 17 17 17 17 17 17 16 16 15 14 13 12 12 12 11 11 10 10 10 10 9 8 7 6 7 9 12 14 16
5 5 6 6 6 5 6 6 5 5 5 6 7 7 8 8 9 9 9 9 9 9 10 10 10 11 11 11 11 12 12 12 12 13 13 13 14 14 14 14 15 16 17 17 18 18 18 18 18 18 18 17 17 17 17 17 17 17 17 16 15 15 15 15 15 15 14 13 13 12 11 11 11 11 11 10 8 7 7 7 8 11 13 15 16
7 6 6 7 7 6 6 6 6 5 6 6 7 8 8 8 8 8 8 8 8 8 8 9 9 10 11 11 11 11 12 12 12 13 13 13 13 14 14 14 15 16 16 17 17 18 18 19 19 19 19 18 18 18 18 17 17 17 17 16 15 14 14 14 14 14 14 14 14 13 12 12 12 12 11 10 9 9 9 9 10 11 13 15 16
8 8 7 7 7 7 7 6 7 6 6 7 7 8 8 8 8 8 8 8 8 8 8 8 9 10 10 10 11 11 11 12 12 12 12 12 12 13 13 13 14 14 15 15 16 17 17 18 18 18 19 18 18 19 19 18 18 17 16 16 15 14 13 13 14 13 13 13 13 12 13 13 13 12 12 11 10 10 10 11 11 12 14 15 17
8 8 8 8 8 7 7 7 7 7 7 7 7 7 8 7 8 8 8 8 8 8 9 9 9 10 10 10 10 11 11 11 12 12 12 12 12 13 13 13 13 14 14 15 15 16 16 17 17 17 18 18 18 18 18 19 18 18 17 16 15 14 13 13 13 13 12 12 11 10 12 13 13 12 12 12 11 10 11 11 11 11 14 15 16
9 8 8 8 8 7 7 7 6 6 6 6 7 7 7 7 7 8 8 8 8 9 9 9 9 10 10 11 11 11 11 11 11 12 12 12 13 13 13 13 13 14 14 15 15 16 16 17 17 17 17 17 17 17 18 18 18 18 18 17 15 14 14 13 13 13 12 12 11 10 10 11 11 11 12 12 12 11 10 11 11 12 13 14 14
9 9 8 8 7 6 6 6 6 6 6 6 7 7 6 6 7 7 7 7 8 8 9 9 9 10 10 10 11 12 12 12 12 12 12 13 13 13 13 13 14 14 14 15 16 16 17 17 18 18 18 18 18 18 18 18 18 18 18 17 16 14 13 13 13 12 12 12 11 11 10 10 10 10 10 10 11 10 10 11 12 12 12 13 13
8 8 7 6 6 5 5 5 5 5 6 6 5 5 6 6 6 6 6 6 7 7 8 9 9 10 10 10 10 10 11 11 12 12 13 13 13 13 14 14 14 15 16 16 17 18 18 18 19 19 19 20 20 20 19 19 18 18 18 17 16 15 13 12 12 12 12 11 11 11 11 11 10 9 8 8 9 9 10 11 12 11 11 12 11
8 7 6 5 4 4 4 4 4 4 4 4 4 4 5 5 6 6 6 6 6 7 7 7 7 8 9 10 9 9 9 10 11 12 13 13 13 14 15 15 16 16 17 17 18 18 19 19 20 20 20 20 20 20 20 20 19 18 18 17 16 15 14 12 12 11 11 11 11 11 12 12 12 10 9 9 9 9 9 10 11 12 12 12 11
6 6 5 4 4 3 3 3 3 3 3 3 3 4 5 5 6 6 6 6 7 6 5 5 5 6 8 9 10 10 10 11 11 11 13 13 14 14 15 15 16 17 17 18 18 18 19 19 19 20 20 20 20 20 20 20 20 19 18 17 16 15 14 13 11 11 11 10 10 10 11 12 13 12 11 10 9 8 8 9 11 11 12 12 11
5 4 3 3 3 2 2 2 2 3 3 3 4 5 5 5 5 5 6 6 7 6 6 6 6 6 7 8 8 10 11 12 12 11 12 13 14 15 15 16 16 17 17 18 18 18 19 19 19 20 20 20 20 19 19 20 20 19 18 17 16 15 14 13 12 11 11 10 10 9 10 11 12 11 10 8 8 7 7 9 11 11 11 11 11
4 4 2 2 2 1 1 1 2 2 2 2 2 3 3 4 4 4 5 7 7 8 8 9 9 8 8 8 7 7 9 10 12 12 12 13 15 16 17 17 16 16 16 17 17 18 18 18 18 19 19 20 20 20 19 18 19 18 18 17 16 16 15 14 13 12 11 11 10 9 9 8 8 7 5 5 6 7 7 9 10 10 9 10 10
3 3 2 1 1 1 0 0 1 1 1 1 2 2 3 4 4 4 5 6 8 9 10 10 10 11 11 11 9 8 8 10 11 11 12 13 15 16 16 17 16 16 16 17 17 18 18 18 18 18 19 19 19 20 20 19 18 17 17 17 16 16 16 15 14 13 12 12 11 10 9 7 6 6 5 5 6 7 8 9 10 9 9 10 12
3 3 2 1 1 1 0 0 0 1 1 1 2 3 4 5 6 6 6 6 7 9 9 9 10 12 13 13 13 12 11 12 13 13 14 15 16 16 16 16 16 16 17 17 17 17 17 18 18 18 18 18 18 19 19 19 19 18 17 16 15 15 15 15 15 14 12 12 11 11 9 7 5 5 5 5 5 5 7 8 8 8 9 11 12
2 2 3 2 3 2 1 1 1 1 2 2 2 4 5 5 6 6 6 6 7 9 9 9 10 12 14 15 15 15 15 15 16 17 18 17 17 17 16 16 16 16 16 16 16 16 16 16 16 17 17 18 18 18 18 19 19 19 18 17 15 15 14 15 15 15 13 12 11 11 9 7 5 5 5 5 5 5 6 7 8 9 9 10 10
3 3 3 3 3 2 1 2 2 2 2 3 3 3 4 4 4 5 5 6 6 8 9 10 11 12 14 14 15 16 17 17 18 18 19 19 18 18 18 17 17 17 17 16 16 16 16 15 15 15 15 16 17 17 17 17 18 18 18 17 16 15 14 14 14 14 14 13 12 11 9 7 6 5 5 5 6 7 7 8 9 10 10 10 11
4 3 4 3 2 2 3 3 3 2 3 4 4 5 4 3 3 4 5 6 6 7 9 11 12 12 13 13 14 16 17 18 18 18 19 20 20 19 19 18 18 18 18 18 17 17 17 16 15 15 14 14 15 16 17 17 17 17 17 17 16 16 15 15 14 13 13 13 12 11 9 8 7 7 7 7 7 8 9 9 10 11 12 12 12
Wind_Direction
294 296 296 295 295 298 301 304 309 313 315 315 316 320 321 322 321 319 317 317 316 316 318 322 319 311 311 306 291 283 273 268 270 272 273 271 269 267 261 246 233 231 229 225 224 220 211 204 207 211 213 217 220 220 223 226 222 215 213 215 216 216 216 214 212 214 220 221 214 212 217 217 221 227 226 224 224 222 223 223 222 224 227 229 231
294 293 292 293 296 298 302 307 312 316 316 316 319 323 324 323 321 320 321 322 320 319 324 330 326 315 318 316 303 291 277 271 271 270 272 272 272 268 257 245 237 232 226 223 224 222 212 204 206 213 219 224 226 222 219 223 225 221 215 213 213 213 213 213 217 219 217 217 217 215 216 218 221 225 225 221 218 220 222 220 220 224 226 228 231
290 290 290 295 298 301 306 311 315 317 319 321 323 325 325 322 321 323 327 327 326 325 328 335 333 320 317 320 312 296 280 276 272 269 272 273 272 263 249 243 237 228 220 216 217 217 212 207 210 218 224 228 229 225 218 218 223 223 218 217 216 214 212 213 217 217 213 215 220 218 217 216 216 218 219 214 212 217 222 221 220 224 226 228 231
289 290 293 297 299 303 310 314 317 321 322 323 323 324 324 323 324 328 332 332 331 329 327 331 335 330 307 289 302 300 286 276 266 264 266 262 258 250 241 235 227 222 216 211 211 212 213 214 216 220 225 227 229 227 221 219 222 222 219 221 222 220 219 219 219 212 210 217 219 215 217 215 212 217 218 211 211 217 222 223 222 224 226 228 231
289 290 293 296 299 306 314 317 321 325 324 323 323 326 328 328 330 333 336 337 333 329 326 327 332 336 319 281 283 292 292 290 273 260 253 244 240 238 234 229 223 220 216 213 213 213 213 216 218 217 219 224 228 229 228 229 227 224 222 221 220 220 221 225 222 209 206 215 216 212 216 214 210 216 218 214 214 216 219 220 220 223 225 227 232
288 288 290 294 300 310 317 321 326 328 328 327 327 331 333 333 335 337 340 340 335 329 325 323 326 330 322 293 280 279 285 289 270 250 243 235 237 240 234 226 221 221 220 220 222 220 216 217 218 215 216 223 227 229 232 233 228 225 228 223 221 224 223 225 223 212 209 213 210 212 220 219 215 217 220 224 221 215 218 220 219 223 227 227 228
287 285 288 295 303 314 321 325 329 332 332 331 332 334 337 337 338 340 344 343 338 332 324 321 322 320 315 305 290 274 267 276 270 253 243 238 247 251 240 227 221 221 222 224 228 227 222 220 217 212 215 224 227 226 230 234 229 227 231 229 229 230 224 223 221 217 217 213 203 209 222 224 221 217 220 228 220 207 212 219 219 221 227 226 221
285 283 287 296 306 315 321 325 330 334 335 334 334 335 337 340 339 341 347 347 344 339 330 322 317 312 312 314 303 286 267 268 269 256 245 243 249 249 238 230 226 226 225 227 232 231 225 223 218 210 210 218 222 223 227 232 231 229 230 231 231 226 222 222 218 212 214 211 201 207 220 223 222 217 215 217 213 205 207 215 214 208 212 218 216
279 278 282 294 308 315 320 326 329 333 336 336 334 334 335 339 339 341 348 351 349 345 338 330 317 306 304 302 300 299 284 268 252 241 245 249 249 243 236 232 233 235 235 237 240 235 227 229 227 217 210 212 218 219 221 226 227 225 227 230 226 219 216 219 213 202 203 205 199 203 217 225 223 218 217 211 205 205 204 209 211 202 203 212 213
269 269 275 290 307 316 321 326 329 332 335 336 335 335 334 336 340 342 347 352 352 348 344 338 322 307 301 297 296 292 282 272 256 238 239 246 248 242 237 236 236 237 240 246 244 232 222 226 227 220 212 214 218 217 217 223 224 220 222 223 218 215 216 215 208 199 198 202 202 204 217 228 224 217 218 211 207 208 204 209 214 208 207 214 214
261 261 268 284 303 317 322 326 330 332 335 337 337 337 335 335 341 344 347 351 353 350 347 341 328 314 304 298 294 290 286 284 271 245 232 235 243 243 238 238 238 235 238 244 239 226 219 220 221 219 214 213 218 219 219 221 217 214 216 215 209 208 210 206 204 206 204 203 206 208 212 222 226 220 215 213 217 219 212 216 221 218 218 223 224
256 258 266 281 298 312 318 323 330 332 335 340 341 341 339 338 341 345 348 352 352 351 348 341 331 316 303 299 300 302 304 295 270 245 227 221 230 239 237 238 240 235 234 235 227 218 217 219 222 222 214 208 213 220 221 218 211 207 210 213 208 205 204 202 202 211 213 207 208 210 207 212 222 225 220 218 222 226 224 225 228 227 229 233 237
254 257 266 279 292 305 314 320 328 333 337 343 346 345 343 342 342 345 350 354 354 353 351 346 339 325 305 297 295 297 304 291 254 238 232 220 221 231 233 235 240 242 239 232 221 215 216 221 225 222 214 211 214 217 218 217 214 209 211 216 211 202 200 201 199 205 216 219 218 217 215 215 218 221 221 219 222 228 231 233 237 241 246 250 254
259 260 266 276 286 298 309 318 327 333 339 344 348 347 346 345 344 346 353 358 356 354 354 354 352 347 328 303 297 293 291 284 260 242 238 229 229 237 241 242 245 252 253 241 228 222 219 219 220 221 219 219 221 222 220 217 216 216 216 220 216 206 203 202 199 202 214 222 221 218 219 220 216 211 211 215 221 228 234 238 242 248 254 258 260
264 264 267 274 281 292 306 318 328 334 340 345 347 348 349 348 346 346 351 357 359 360 1 3 7 9 3 339 332 325 310 301 288 262 245 238 238 241 244 246 242 242 247 242 234 230 226 221 219 220 223 223 223 224 219 210 207 210 213 216 220 219 212 206 204 207 215 221 220 215 217 220 216 208 202 208 220 227 231 236 237 239 246 248 247
265 266 269 272 278 290 306 320 330 336 341 345 347 349 350 349 349 349 351 356 3 10 11 15 25 29 25 11 1 357 341 300 280 283 274 258 254 242 231 230 228 229 237 240 235 230 230 230 224 219 220 219 216 216 211 203 200 205 210 215 219 222 219 213 213 215 217 224 225 221 222 226 224 216 209 212 222 226 228 234 234 234 239 242 243
270 271 271 271 277 294 311 325 334 339 343 345 346 349 351 352 355 355 356 1 10 19 23 27 35 36 31 25 26 39 53 87 196 244 297 240 246 239 218 216 220 222 229 241 243 236 232 233 225 215 216 215 209 205 202 201 204 206 211 215 218 221 221 219 219 218 219 225 228 225 226 228 227 225 226 230 235 237 239 241 241 240 242 245 247
275 275 274 271 280 302 318 331 340 342 345 346 346 349 352 357 1 2 6 13 17 23 29 34 38 37 29 26 32 45 56 76 111 107 326 221 224 235 229 219 211 200 202 217 229 232 234 232 220 210 213 215 212 204 198 201 207 207 209 214 216 219 222 221 222 223 224 227 231 231 232 232 233 235 238 241 243 246 246 243 242 243 245 248 251
276 273 271 271 285 310 327 341 346 346 347 347 349 353 356 2 6 9 16 22 21 25 30 33 35 32 23 24 30 18 353 353 349 330 315 276 234 237 237 218 198 182 173 187 198 210 234 232 222 218 221 220 212 200 194 197 202 202 206 213 216 219 221 223 224 225 227 230 234 237 237 238 240 242 244 247 248 249 246 241 240 243 247 252 255
274 270 269 275 294 321 337 347 350 349 349 349 352 356 359 7 18 22 25 25 22 24 28 29 32 35 36 40 47 52 350 324 324 323 319 307 271 251 242 226 215 209 122 114 153 150 56 164 190 208 231 237 224 207 201 202 209 219 221 220 222 225 227 229 231 231 232 235 237 239 241 242 244 244 246 249 250 249 246 244 244 245 249 254 256
274 272 274 286 312 335 345 351 351 349 350 350 353 358 3 16 29 32 32 34 37 37 33 32 34 38 48 57 63 69 47 330 323 334 360 359 331 271 252 246 241 255 300 332 322 3 27 29 324 182 203 227 230 213 207 210 217 229 230 224 225 229 230 233 237 239 240 240 241 243 245 246 247 248 247 248 248 246 245 245 247 250 253 256 258
275 277 289 312 334 346 348 348 347 347 350 352 354 360 9 20 27 26 28 36 42 41 39 40 40 41 47 57 67 68 56 28 11 52 52 20 5 339 303 295 299 309 319 320 309 347 94 132 211 240 229 244 257 257 253 251 250 252 249 241 237 235 232 232 237 240 243 245 246 248 249 250 251 251 250 249 248 246 245 245 247 250 253 255 257
272 283 316 334 343 345 342 342 343 345 350 355 356 1 13 18 18 16 18 28 32 29 31 38 46 52 52 53 61 65 57 47 41 32 10 357 354 351 340 327 322 323 325 318 292 263 175 159 174 178 226 258 271 277 270 255 246 247 247 242 242 242 239 235 235 239 246 252 255 257 258 257 256 255 253 252 250 247 247 246 247 248 250 251 252
283 317 348 347 342 344 344 344 347 348 350 353 348 338 5 13 7 1 10 20 17 10 18 32 49 64 63 57 61 68 68 60 48 32 21 10 359 356 353 349 347 343 340 337 315 279 258 244 241 246 250 258 276 284 269 252 249 256 258 257 261 264 260 255 256 260 264 264 263 263 262 260 258 256 255 254 253 252 251 250 249 249 250 249 248
338 346 356 357 352 357 1 359 356 352 348 343 314 266 273 314 339 358 13 14 3 357 17 39 53 61 55 43 41 49 55 53 43 31 25 19 13 10 8 5 4 2 357 356 353 337 309 289 279 278 281 286 291 294 287 275 271 274 275 272 269 264 259 260 266 270 270 269 268 268 266 264 261 258 257 257 256 254 252 252 251 251 251 251 249
335 336 346 354 3 12 12 8 4 355 347 348 358 216 316 342 358 8 10 8 5 16 35 40 37 38 37 31 27 28 28 27 24 19 15 12 8 7 3 358 354 351 348 346 345 344 337 325 313 305 302 300 296 294 290 283 277 276 277 277 276 274 270 270 272 274 274 274 274 274 273 269 265 261 258 257 256 254 252 253 253 253 254 254 252
280 301 323 331 356 17 9 5 13 12 10 23 46 47 30 26 25 19 16 16 21 29 36 33 24 20 20 21 21 18 15 15 15 13 10 8 6 3 358 351 344 337 332 329 326 324 320 315 311 305 301 299 295 291 288 285 282 282 283 284 285 285 284 283 282 282 282 281 279 277 275 271 268 264 262 260 259 258 257 256 255 254 254 253 250
274 284 286 309 349 8 11 12 24 33 36 43 46 37 29 30 30 27 26 27 27 30 32 29 21 18 16 15 16 16 15 17 17 15 13 11 9 7 2 357 350 342 332 324 318 315 312 310 307 303 299 297 294 291 289 287 286 286 286 287 288 288 287 287 286 285 283 281 279 276 274 272 270 269 268 267 264 261 257 253 251 249 248 247 244
255 310 336 28 31 29 31 35 48 61 64 65 58 49 47 49 45 38 39 44 43 41 38 34 34 39 37 32 29 27 25 26 29 31 30 27 20 14 9 4 359 352 345 337 329 325 322 318 314 311 308 305 302 299 296 293 291 290 288 286 286 287 287 286 284 282 280 278 276 273 271 270 269 268 268 265 260 254 247 242 240 236 232 234 241
157 130 54 45 46 50 49 50 57 66 70 74 75 74 73 69 62 57 59 64 64 60 54 52 54 56 55 51 49 46 41 40 44 44 43 42 38 33 27 22 16 9 3 1 357 349 341 334 327 322 318 315 312 310 307 303 301 298 295 292 291 290 289 287 284 280 277 275 273 270 267 263 262 262 260 254 246 238 229 226 231 235 236 240 247
183 146 101 74 61 57 58 63 68 70 71 74 75 76 78 75 71 69 72 74 74 70 67 66 67 67 67 66 65 64 61 59 57 54 50 47 45 42 40 36 32 26 22 20 15 6 359 354 349 343 339 333 327 322 318 316 314 312 310 308 306 302 300 297 293 288 283 278 274 270 265 259 255 252 248 240 230 221 212 209 223 239 248 251 250
99 47 75 88 84 76 73 74 74 73 76 78 79 79 79 80 79 77 79 81 79 75 73 73 74 73 72 70 68 66 65 64 62 59 55 52 49 47 44 42 38 35 32 29 21 14 11 8 2 358 355 352 347 344 340 337 335 332 329 326 324 321 319 314 308 303 297 290 282 275 269 263 257 251 243 234 223 213 202 199 213 229 240 246 247
99 60 37 55 78 89 92 88 81 78 78 81 86 87 86 85 83 83 83 83 82 79 79 79 80 79 76 73 71 69 67 65 62 58 55 52 49 47 45 41 38 35 32 27 22 17 15 13 9 6 2 358 356 354 351 349 349 347 343 340 338 337 335 331 326 322 316 306 296 287 279 273 266 257 248 237 227 217 209 207 214 225 235 242 246
118 105 87 71 71 81 90 92 91 91 88 85 83 81 80 81 82 82 82 82 80 79 78 76 76 76 75 73 70 67 66 63 61 57 54 50 46 43 41 39 36 33 30 25 22 19 16 14 12 10 7 3 1 360 355 351 350 349 346 344 344 343 342 338 335 333 329 321 311 301 291 282 275 264 253 245 240 236 230 227 228 233 240 243 245
137 135 130 118 104 94 90 87 84 83 85 90 91 89 87 84 81 79 79 78 77 75 72 69 67 65 63 62 60 58 56 54 53 51 48 46 44 40 37 34 32 30 27 25 23 21 18 16 13 11 9 5 2 1 359 355 351 348 345 343 341 340 339 336 331 328 324 318 313 307 299 291 282 272 262 260 263 265 261 251 244 245 245 242 241
133 133 129 124 118 109 102 97 90 80 78 81 85 87 89 85 79 74 71 69 67 64 60 57 55 53 50 47 46 45 43 42 42 40 36 34 34 33 30 28 27 25 23 21 19 18 16 14 12 11 10 7 2 1 359 357 353 349 346 344 340 336 332 327 323 322 319 313 307 303 299 294 288 282 279 278 279 278 269 253 244 242 241 239 241
123 122 123 123 121 118 115 110 101 93 85 81 79 78 76 74 71 70 69 65 61 57 52 48 47 46 41 36 33 34 32 30 31 31 27 23 23 23 21 20 21 21 19 18 17 15 13 11 9 7 6 4 2 360 359 358 355 350 346 343 340 335 328 321 317 317 315 310 307 303 296 290 286 284 283 280 276 274 269 258 246 239 233 230 234
130 127 124 122 119 115 110 102 96 91 84 79 77 73 67 61 55 52 53 52 48 43 39 37 36 37 35 31 29 28 27 25 24 23 20 18 17 16 14 15 17 16 15 15 14 13 11 10 7 5 3 2 360 357 356 356 355 351 348 344 340 337 331 324 318 316 311 306 306 303 296 291 287 285 283 280 277 276 274 266 255 242 232 226 228
132 127 123 118 111 105 100 95 92 88 82 76 71 67 62 54 44 35 32 32 31 27 24 24 25 26 26 25 24 24 24 22 20 19 16 14 14 13 12 12 13 13 13 14 13 12 11 9 7 5 3 1 358 356 355 355 353 351 348 346 342 338 333 325 320 317 311 305 302 298 293 291 290 287 284 282 279 274 270 267 259 245 235 232 232
124 119 113 108 103 100 98 95 90 84 77 70 63 57 53 50 45 38 28 24 24 22 20 19 19 20 22 21 19 20 20 17 15 17 17 14 13 14 13 12 13 13 13 14 14 13 12 11 9 6 4 2 360 357 356 355 354 351 349 348 345 341 336 329 324 320 315 309 302 295 290 288 287 285 282 280 277 273 267 263 254 238 229 231 236
118 113 108 104 103 101 98 93 86 78 69 61 54 49 41 38 39 39 33 27 22 18 16 15 15 17 19 19 16 15 16 14 12 15 17 14 12 14 15 14 14 15 15 16 16 15 15 13 12 9 6 4 2 360 358 357 355 352 350 348 346 344 340 335 330 325 319 312 302 293 287 283 279 276 273 274 278 278 269 257 248 235 227 230 238
120 116 111 107 103 96 88 80 73 68 62 56 50 43 33 25 25 27 27 26 22 16 14 16 17 14 15 19 19 15 12 11 10 12 15 14 13 13 13 13 13 15 16 16 16 15 15 14 13 12 10 7 4 1 359 358 358 356 352 350 348 347 346 343 337 330 324 316 304 294 287 282 277 273 269 268 272 272 265 255 247 237 228 229 235
122 116 111 104 93 84 76 68 61 60 60 52 38 29 22 15 13 12 11 16 23 20 12 14 15 9 8 16 20 15 12 14 14 11 10 11 12 12 12 12 12 13 14 15 14 14 14 13 12 12 11 9 6 2 359 358 359 358 355 352 350 348 348 348 343 336 329 321 311 301 291 283 279 275 270 263 259 260 261 257 251 244 236 230 226
120 113 105 97 87 75 64 53 41 41 46 34 15 14 14 8 5 3 2 10 17 15 8 13 17 7 4 10 12 8 10 17 18 12 7 8 10 11 11 11 10 9 10 11 11 11 11 10 9 9 9 8 8 5 360 356 357 359 358 353 350 349 348 348 345 340 335 328 322 313 300 290 285 282 279 276 272 267 261 254 249 247 242 234 224
117 113 109 103 94 77 48 37 30 27 26 16 8 8 4 357 353 349 352 2 12 13 17 26 26 16 11 13 10 5 6 10 12 10 9 8 8 8 8 9 8 6 5 5 6 7 7 7 6 5 6 6 7 7 3 357 355 356 357 354 350 348 347 346 344 342 339 333 329 324 317 306 297 292 292 297 298 288 268 252 247 245 240 231 219
120 120 119 109 104 102 43 29 23 10 9 20 25 16 2 353 347 342 346 359 10 17 22 26 26 25 27 27 17 6 3 4 5 8 11 11 10 7 4 3 3 2 360 360 0 1 2 2 2 1 2 2 2 4 5 1 356 354 354 353 351 348 346 344 343 343 341 335 329 327 328 323 315 309 312 317 308 290 266 250 246 241 230 220 213
142 142 137 114 122 150 173 19 359 330 351 12 25 36 32 20 10 3 1 3 7 11 15 17 17 19 22 22 19 14 8 2 3 8 14 16 14 8 1 357 356 355 355 356 355 353 353 356 357 357 358 358 358 359 360 359 357 354 352 350 350 347 345 344 342 340 339 335 329 324 324 327 329 328 322 307 290 272 254 245 243 234 219 213 215
163 151 139 151 205 219 241 17 181 169 141 48 11 20 25 17 6 6 10 7 2 5 9 8 5 7 10 11 12 13 10 3 0 6 13 16 14 8 360 355 353 352 351 351 349 347 347 349 350 349 350 352 354 356 355 355 354 353 352 349 347 344 342 342 341 339 336 332 327 322 319 317 317 313 299 288 280 267 254 248 244 234 224 223 226
186 167 159 188 220 233 257 326 27 83 94 85 42 10 2 356 351 355 0 358 352 354 356 354 353 358 4 5 3 1 0 360 0 2 5 7 7 5 0 355 353 351 349 347 345 343 343 344 342 341 343 346 347 349 351 351 350 350 349 347 344 340 337 336 337 337 335 330 324 319 314 305 291 277 269 268 270 266 257 251 246 238 230 232 240
213 206 203 214 225 246 298 328 351 2 11 23 18 355 345 344 340 339 347 352 350 344 340 341 347 354 359 358 353 349 349 355 359 357 354 354 356 358 357 353 351 351 349 346 344 342 342 340 337 337 340 341 340 341 345 347 346 345 345 343 341 339 335 331 329 331 332 330 324 315 304 290 273 260 255 256 261 262 259 256 254 248 238 233 239
232 234 240 250 262 285 299 309 311 310 326 345 345 335 336 342 329 324 339 354 353 337 327 330 338 346 347 344 341 339 343 349 353 350 345 343 346 349 351 350 349 350 349 347 345 343 340 339 337 336 339 340 338 338 340 341 340 340 340 339 338 337 335 331 326 323 323 324 321 311 295 278 264 260 259 259 262 264 262 259 258 255 249 242 241
Height
3129 3128 3127 3126 3126 3125 3124 3123 3122 3121 3120 3119 3118 3117 3116 3114 3112 3110 3107 3105 3102 3101 3099 3097 3094 3092 3092 3091 3091 3092 3093 3094 3095 3096 3097 3099 3100 3101 3101 3102 3103 3103 3104 3106 3107 3108 3109 3110 3112 3113 3114 3116 3118 3120 3120 3119 3120 3123 3125 3125 3127 3128 3130 3132 3132 3133 3134 3135 3137 3139 3140 3141 3142 3143 3144 3146 3147 3147 3148 3148 3149 3150 3151 3152 3153
3126 3126 3125 3124 3124 3123 3122 3121 3120 3119 3118 3117 3116 3115 3113 3112 3109 3107 3105 3103 3100 3099 3097 3095 3093 3091 3091 3090 3090 3090 3090 3091 3091 3092 3094 3095 3097 3098 3099 3100 3101 3101 3102 3104 3104 3105 3106 3108 3110 3111 3112 3113 3115 3117 3118 3118 3118 3119 3121 3123 3124 3126 3127 3129 3130 3130 3132 3133 3135 3137 3138 3139 3141 3141 3143 3144 3145 3145 3146 3147 3148 3148 3149 3150 3151
3124 3123 3123 3122 3122 3121 3120 3119 3118 3117 3116 3115 3114 3113 3111 3109 3107 3105 3103 3101 3099 3097 3096 3094 3092 3090 3090 3089 3088 3088 3088 3089 3089 3090 3092 3093 3095 3096 3096 3098 3099 3099 3101 3101 3102 3103 3105 3106 3108 3109 3110 3111 3112 3114 3115 3116 3115 3116 3119 3121 3122 3122 3124 3126 3127 3129 3130 3131 3133 3135 3136 3138 3139 3140 3141 3142 3143 3143 3144 3145 3146 3147 3148 3148 3149
3122 3121 3121 3121 3120 3119 3118 3117 3116 3116 3115 3114 3112 3111 3109 3108 3106 3103 3101 3099 3097 3096 3094 3093 3091 3089 3088 3088 3087 3087 3087 3087 3088 3089 3090 3091 3092 3094 3095 3095 3096 3097 3099 3099 3100 3101 3103 3105 3106 3108 3109 3109 3110 3110 3112 3113 3115 3117 3119 3120 3120 3122 3124 3125 3126 3127 3128 3129 3131 3133 3134 3136 3138 3138 3139 3140 3141 3142 3142 3143 3144 3145 3146 3146 3147
3120 3119 3119 3119 3118 3118 3117 3116 3115 3114 3113 3112 3110 3109 3108 3106 3104 3102 3099 3097 3096 3094 3093 3091 3090 3088 3087 3086 3086 3086 3086 3086 3087 3088 3089 3090 3090 3092 3093 3094 3094 3095 3097 3098 3098 3100 3101 3102 3104 3106 3107 3108 3107 3108 3111 3112 3115 3117 3117 3118 3119 3120 3122 3124 3125 3125 3125 3127 3129 3131 3132 3134 3135 3136 3137 3138 3139 3140 3141 3142 3142 3143 3143 3144 3145
3118 3118 3118 3117 3117 3116 3116 3115 3114 3113 3112 3110 3109 3108 3106 3104 3102 3100 3098 3096 3094 3093 3091 3090 3089 3088 3086 3085 3085 3085 3085 3086 3086 3087 3088 3088 3089 3090 3091 3092 3093 3094 3095 3096 3097 3098 3099 3101 3103 3104 3106 3106 3106 3108 3110 3110 3113 3115 3115 3117 3118 3117 3119 3122 3123 3125 3125 3125 3126 3128 3129 3131 3133 3134 3134 3136 3137 3138 3139 3139 3140 3140 3141 3142 3143
3117 3117 3117 3116 3116 3115 3114 3114 3113 3112 3111 3109 3108 3106 3105 3103 3101 3099 3097 3095 3093 3091 3090 3088 3088 3087 3086 3085 3084 3084 3085 3085 3086 3086 3087 3087 3088 3088 3089 3090 3091 3092 3093 3094 3096 3098 3099 3101 3101 3103 3104 3105 3106 3108 3108 3108 3110 3113 3114 3115 3116 3115 3117 3119 3121 3123 3124 3124 3125 3126 3127 3128 3130 3132 3133 3134 3135 3136 3136 3137 3138 3139 3139 3140 3141
3116 3116 3116 3115 3115 3114 3113 3112 3111 3110 3109 3108 3106 3105 3103 3102 3100 3098 3096 3094 3091 3090 3088 3087 3086 3086 3085 3084 3084 3084 3084 3085 3086 3086 3086 3086 3086 3087 3087 3088 3089 3090 3092 3093 3094 3097 3098 3098 3099 3100 3101 3103 3104 3106 3107 3106 3108 3111 3112 3113 3114 3114 3115 3116 3118 3120 3121 3122 3124 3124 3125 3126 3128 3130 3131 3132 3133 3134 3134 3135 3136 3138 3138 3138 3139
3115 3115 3115 3114 3114 3113 3112 3111 3110 3109 3108 3107 3105 3104 3102 3101 3099 3097 3095 3093 3091 3088 3087 3085 3085 3085 3084 3083 3083 3083 3084 3084 3085 3085 3085 3085 3085 3085 3086 3087 3087 3089 3090 3091 3092 3094 3096 3096 3097 3099 3099 3099 3101 3104 3105 3105 3106 3109 3110 3111 3112 3113 3113 3114 3116 3117 3118 3120 3122 3122 3123 3124 3127 3128 3129 3130 3131 3132 3133 3133 3134 3136 3136 3136 3137
3114 3114 3114 3113 3112 3112 3111 3110 3109 3108 3107 3106 3104 3103 3101 3099 3098 3096 3094 3092 3090 3088 3086 3085 3084 3084 3083 3083 3083 3083 3083 3083 3084 3085 3085 3085 3085 3085 3085 3086 3087 3088 3089 3090 3090 3092 3093 3094 3095 3097 3097 3096 3098 3102 3103 3104 3105 3107 3108 3109 3110 3111 3111 3112 3114 3115 3116 3118 3120 3121 3122 3122 3124 3127 3127 3128 3129 3130 3131 3132 3132 3133 3134 3134 3135
3113 3113 3112 3112 3111 3110 3109 3109 3107 3106 3105 3104 3103 3101 3100 3098 3096 3095 3093 3091 3089 3087 3086 3085 3084 3084 3083 3082 3082 3082 3082 3082 3083 3084 3084 3084 3084 3084 3085 3086 3086 3087 3088 3089 3089 3090 3091 3092 3093 3095 3095 3095 3096 3098 3100 3101 3103 3105 3107 3108 3109 3109 3109 3110 3112 3113 3115 3117 3118 3119 3121 3121 3122 3124 3125 3126 3126 3127 3129 3130 3130 3131 3131 3132 3133
3111 3111 3111 3110 3110 3109 3108 3107 3106 3105 3104 3103 3102 3100 3098 3097 3095 3094 3092 3090 3088 3086 3085 3084 3084 3083 3083 3082 3081 3081 3081 3081 3082 3082 3083 3083 3083 3083 3084 3085 3085 3086 3087 3087 3088 3089 3089 3090 3092 3093 3093 3094 3094 3095 3097 3099 3101 3104 3106 3106 3107 3107 3107 3109 3110 3111 3113 3115 3117 3118 3120 3120 3120 3121 3123 3124 3124 3126 3127 3128 3128 3129 3129 3130 3131
3110 3110 3109 3109 3108 3107 3107 3106 3105 3104 3103 3101 3100 3099 3097 3096 3094 3092 3091 3089 3087 3085 3084 3083 3082 3082 3082 3081 3081 3080 3080 3080 3081 3081 3082 3082 3083 3083 3084 3085 3085 3085 3086 3086 3087 3088 3088 3089 3090 3090 3091 3092 3092 3093 3094 3096 3099 3102 3104 3104 3104 3104 3105 3106 3108 3110 3111 3114 3115 3117 3118 3119 3119 3120 3121 3122 3123 3124 3125 3126 3126 3127 3127 3128 3129
3108 3108 3108 3107 3107 3106 3105 3104 3104 3102 3101 3100 3099 3098 3096 3095 3093 3091 3090 3089 3087 3085 3083 3082 3081 3081 3081 3081 3081 3080 3080 3080 3080 3081 3081 3081 3082 3082 3083 3084 3084 3085 3085 3085 3086 3086 3087 3087 3088 3088 3089 3090 3091 3093 3094 3095 3097 3099 3101 3101 3103 3104 3103 3104 3106 3108 3109 3111 3112 3114 3116 3117 3118 3119 3120 3120 3121 3123 3123 3124 3124 3125 3125 3126 3126
3107 3106 3106 3106 3105 3105 3104 3103 3102 3101 3100 3099 3098 3097 3095 3094 3092 3090 3089 3088 3087 3085 3083 3082 3081 3080 3081 3081 3081 3080 3080 3079 3080 3080 3080 3081 3082 3082 3083 3083 3083 3084 3084 3084 3084 3085 3085 3086 3087 3087 3088 3089 3090 3092 3094 3095 3096 3097 3099 3100 3102 3103 3104 3105 3106 3107 3107 3109 3109 3111 3113 3114 3115 3116 3118 3119 3120 3121 3122 3123 3123 3124 3124 3124 3124
3105 3105 3105 3104 3104 3103 3102 3102 3101 3100 3099 3098 3097 3096 3095 3093 3092 3090 3088 3087 3086 3084 3083 3082 3081 3081 3081 3082 3081 3081 3080 3079 3079 3079 3080 3080 3081 3081 3081 3081 3082 3082 3082 3083 3083 3083 3083 3084 3085 3087 3088 3089 3089 3091 3092 3094 3095 3097 3098 3100 3101 3102 3103 3105 3106 3106 3107 3108 3109 3111 3112 3113 3114 3115 3116 3117 3118 3119 3120 3121 3121 3122 3122 3123 3124
3103 3103 3103 3103 3102 3101 3101 3100 3100 3099 3098 3097 3097 3095 3094 3093 3091 3090 3088 3087 3086 3085 3084 3083 3082 3082 3082 3082 3082 3082 3081 3079 3078 3079 3079 3080 3080 3080 3080 3080 3080 3081 3081 3081 3081 3081 3082 3083 3084 3086 3087 3088 3089 3090 3091 3093 3095 3096 3097 3098 3100 3101 3102 3103 3105 3106 3107 3108 3109 3110 3111 3112 3114 3114 3115 3116 3116 3117 3118 3119 3120 3120 3121 3121 3122
3101 3102 3102 3101 3100 3100 3099 3099 3099 3098 3097 3097 3096 3095 3094 3092 3091 3090 3088 3087 3086 3085 3084 3083 3083 3083 3083 3083 3083 3083 3082 3080 3079 3079 3080 3080 3080 3079 3080 3080 3080 3080 3080 3080 3081 3081 3081 3082 3083 3085 3086 3087 3089 3090 3091 3093 3094 3095 3096 3097 3099 3100 3101 3102 3103 3105 3106 3107 3107 3108 3110 3111 3112 3112 3113 3113 3114 3115 3116 3117 3117 3118 3118 3118 3119
3100 3100 3100 3099 3099 3098 3098 3098 3097 3097 3096 3096 3095 3094 3093 3092 3091 3090 3089 3088 3086 3085 3084 3084 3083 3083 3082 3082 3083 3082 3082 3081 3081 3081 3080 3080 3080 3080 3080 3080 3080 3080 3080 3081 3081 3082 3082 3082 3083 3084 3086 3087 3088 3090 3091 3092 3094 3094 3095 3096 3097 3098 3100 3101 3102 3103 3104 3105 3106 3106 3107 3108 3109 3110 3110 3111 3111 3112 3113 3114 3114 3115 3115 3115 3115
3098 3098 3098 3098 3098 3097 3097 3097 3096 3096 3095 3095 3094 3093 3092 3092 3091 3090 3089 3088 3087 3086 3085 3084 3084 3083 3082 3082 3082 3082 3082 3082 3082 3081 3081 3081 3081 3080 3080 3080 3081 3081 3082 3082 3082 3083 3083 3083 3084 3085 3086 3086 3087 3089 3090 3091 3093 3093 3094 3095 3096 3097 3099 3100 3101 3102 3103 3104 3104 3104 3105 3106 3106 3107 3107 3107 3108 3108 3109 3110 3110 3111 3111 3111 3111
3097 3097 3097 3097 3096 3096 3096 3096 3095 3095 3094 3094 3093 3093 3092 3092 3091 3090 3089 3089 3088 3087 3086 3085 3084 3084 3083 3082 3082 3083 3083 3083 3082 3082 3081 3081 3081 3081 3081 3081 3082 3082 3083 3083 3084 3084 3084 3085 3086 3087 3088 3087 3087 3088 3090 3091 3092 3093 3094 3095 3095 3096 3097 3099 3099 3100 3101 3102 3102 3102 3102 3103 3104 3104 3104 3104 3104 3104 3105 3105 3106 3106 3107 3107 3107
3096 3096 3096 3095 3095 3095 3095 3095 3094 3094 3094 3093 3093 3093 3092 3092 3091 3091 3090 3089 3088 3088 3087 3086 3085 3084 3084 3083 3083 3083 3083 3083 3083 3083 3083 3082 3082 3082 3082 3083 3083 3083 3084 3084 3085 3085 3086 3086 3086 3087 3088 3088 3088 3089 3090 3091 3091 3092 3093 3094 3094 3095 3095 3096 3096 3097 3098 3099 3099 3100 3100 3100 3101 3100 3100 3100 3101 3101 3101 3101 3101 3101 3101 3101 3101
3095 3095 3095 3094 3094 3094 3094 3094 3093 3093 3093 3093 3093 3092 3092 3091 3091 3091 3090 3090 3089 3088 3087 3086 3086 3085 3085 3084 3084 3083 3083 3084 3084 3084 3083 3083 3083 3083 3083 3083 3083 3084 3084 3084 3085 3086 3086 3086 3086 3086 3087 3087 3088 3089 3090 3090 3090 3090 3091 3092 3093 3093 3093 3093 3093 3094 3095 3096 3096 3096 3097 3097 3097 3096 3096 3096 3096 3096 3096 3096 3095 3095 3095 3095 3096
3094 3094 3093 3093 3093 3093 3093 3093 3093 3093 3092 3092 3092 3092 3092 3091 3091 3090 3090 3089 3089 3088 3087 3087 3086 3086 3086 3085 3085 3084 3084 3084 3084 3084 3084 3083 3083 3083 3083 3083 3083 3083 3083 3084 3084 3085 3086 3086 3086 3086 3086 3086 3087 3087 3088 3089 3089 3089 3090 3090 3091 3091 3091 3091 3091 3092 3092 3093 3093 3093 3093 3093 3092 3092 3092 3092 3092 3092 3091 3091 3090 3090 3090 3091 3091
3093 3093 3093 3093 3092 3092 3092 3092 3092 3092 3092 3092 3091 3091 3091 3091 3091 3090 3090 3089 3088 3088 3087 3087 3086 3086 3086 3085 3085 3085 3084 3084 3084 3084 3083 3083 3083 3083 3083 3083 3083 3083 3083 3083 3083 3083 3084 3085 3085 3085 3085 3085 3085 3086 3087 3087 3087 3087 3088 3088 3088 3089 3089 3089 3089 3089 3089 3089 3088 3088 3089 3088 3088 3087 3087 3087 3087 3086 3085 3085 3086 3086 3086 3087 3087
3093 3093 3092 3092 3092 3092 3092 3092 3092 3092 3091 3091 3091 3091 3090 3090 3090 3090 3089 3089 3088 3087 3087 3086 3086 3086 3086 3085 3085 3084 3084 3084 3084 3083 3083 3083 3083 3083 3082 3082 3082 3082 3082 3082 3082 3082 3083 3083 3084 3084 3084 3084 3084 3084 3085 3086 3086 3086 3085 3085 3086 3086 3086 3086 3086 3086 3086 3085 3085 3085 3085 3084 3083 3082 3082 3082 3082 3080 3080 3081 3081 3081 3082 3083 3082
3092 3092 3092 3091 3091 3091 3091 3091 3092 3091 3091 3091 3091 3091 3090 3090 3090 3090 3090 3089 3088 3087 3087 3087 3087 3086 3086 3086 3085 3085 3084 3084 3084 3083 3083 3082 3082 3082 3082 3082 3081 3081 3081 3081 3082 3082 3082 3082 3082 3082 3082 3082 3082 3082 3082 3083 3083 3083 3083 3082 3082 3082 3082 3082 3082 3082 3082 3082 3081 3081 3081 3080 3079 3078 3078 3078 3078 3077 3077 3077 3077 3077 3078 3078 3078
3092 3092 3091 3091 3091 3091 3092 3092 3092 3092 3091 3091 3091 3091 3091 3091 3091 3091 3090 3090 3089 3088 3088 3088 3087 3087 3087 3086 3086 3085 3085 3084 3084 3084 3083 3083 3082 3082 3082 3081 3081 3081 3081 3081 3081 3081 3081 3081 3080 3080 3080 3079 3079 3079 3079 3079 3079 3079 3079 3079 3078 3078 3078 3077 3077 3077 3077 3077 3077 3076 3076 3076 3076 3075 3074 3074 3074 3074 3073 3073 3073 3073 3073 3073 3074
3092 3091 3091 3092 3092 3092 3092 3092 3092 3092 3092 3092 3092 3092 3091 3091 3091 3091 3091 3090 3090 3089 3089 3088 3088 3087 3087 3086 3086 3085 3085 3084 3084 3084 3083 3083 3083 3082 3082 3082 3081 3081 3081 3081 3080 3080 3080 3080 3079 3079 3078 3077 3077 3076 3076 3075 3075 3075 3075 3075 3074 3074 3074 3073 3073 3073 3072 3072 3072 3072 3072 3071 3071 3070 3070 3069 3069 3069 3068 3068 3068 3069 3069 3070 3072
3092 3092 3092 3092 3092 3092 3092 3092 3092 3092 3092 3092 3092 3092 3092 3092 3092 3091 3091 3091 3090 3090 3090 3089 3088 3088 3088 3087 3087 3086 3086 3085 3084 3084 3084 3083 3083 3083 3082 3082 3081 3081 3080 3080 3080 3079 3079 3079 3078 3077 3077 3076 3075 3074 3074 3073 3073 3072 3072 3071 3071 3070 3070 3070 3069 3069 3069 3068 3068 3068 3068 3067 3066 3066 3065 3065 3065 3064 3064 3064 3065 3065 3066 3069 3070
3092 3092 3093 3093 3093 3093 3093 3093 3093 3093 3093 3093 3093 3092 3092 3092 3092 3092 3092 3091 3091 3091 3090 3090 3089 3089 3088 3088 3087 3087 3086 3085 3085 3085 3084 3084 3083 3083 3082 3082 3081 3081 3080 3080 3080 3079 3079 3078 3077 3076 3076 3075 3074 3073 3072 3072 3071 3070 3069 3069 3068 3067 3067 3066 3066 3066 3066 3065 3065 3065 3064 3063 3063 3062 3061 3061 3061 3061 3062 3063 3064 3064 3065 3067 3069
3092 3092 3092 3093 3094 3094 3093 3093 3093 3093 3093 3093 3093 3093 3093 3093 3093 3092 3092 3092 3091 3091 3091 3090 3090 3089 3089 3088 3088 3087 3087 3086 3086 3085 3085 3084 3084 3084 3083 3082 3082 3081 3081 3080 3080 3079 3078 3077 3076 3076 3075 3074 3073 3072 3072 3071 3070 3069 3068 3067 3066 3065 3065 3064 3064 3064 3063 3063 3063 3062 3062 3061 3060 3060 3059 3059 3059 3059 3060 3061 3063 3063 3064 3065 3066
3093 3093 3093 3093 3094 3094 3094 3094 3094 3094 3094 3094 3094 3094 3094 3093 3093 3093 3093 3092 3092 3092 3092 3091 3091 3091 3090 3090 3089 3088 3088 3087 3087 3086 3086 3085 3085 3084 3084 3083 3082 3081 3081 3080 3079 3078 3078 3077 3076 3075 3074 3073 3072 3071 3070 3070 3069 3068 3067 3066 3065 3065 3064 3063 3063 3062 3062 3061 3061 3060 3060 3059 3059 3059 3059 3058 3058 3058 3059 3060 3062 3062 3063 3064 3064
3094 3094 3094 3093 3094 3094 3094 3094 3094 3094 3094 3094 3094 3094 3094 3094 3094 3094 3094 3093 3093 3093 3093 3093 3092 3092 3091 3091 3090 3090 3089 3089 3088 3088 3087 3086 3086 3085 3084 3084 3083 3082 3081 3080 3079 3078 3077 3076 3075 3074 3073 3072 3072 3071 3070 3069 3068 3067 3066 3065 3064 3064 3063 3062 3061 3061 3060 3060 3059 3059 3058 3058 3058 3058 3058 3057 3057 3058 3059 3060 3061 3061 3062 3063 3063
3094 3095 3095 3094 3094 3094 3094 3094 3094 3094 3094 3094 3094 3095 3095 3095 3095 3094 3094 3094 3094 3094 3094 3094 3093 3093 3092 3092 3091 3091 3090 3090 3089 3089 3088 3087 3087 3086 3085 3084 3083 3082 3081 3080 3079 3078 3077 3076 3075 3074 3073 3072 3071 3070 3070 3069 3068 3067 3066 3065 3064 3063 3062 3061 3060 3060 3059 3058 3058 3057 3057 3057 3057 3056 3056 3056 3057 3057 3058 3059 3059 3060 3060 3061 3062
3095 3095 3095 3095 3095 3095 3095 3095 3095 3095 3095 3095 3095 3095 3096 3096 3095 3095 3095 3095 3095 3095 3095 3094 3094 3094 3093 3093 3092 3092 3091 3091 3090 3089 3088 3087 3087 3086 3085 3084 3083 3082 3081 3080 3079 3078 3077 3076 3075 3074 3073 3072 3071 3070 3069 3068 3067 3066 3065 3064 3063 3062 3061 3060 3059 3058 3058 3057 3057 3056 3056 3055 3055 3055 3055 3055 3056 3056 3057 3057 3058 3058 3059 3060 3060
3095 3095 3095 3095 3096 3096 3096 3096 3096 3096 3096 3096 3096 3096 3096 3096 3096 3097 3096 3096 3096 3096 3096 3095 3095 3095 3094 3094 3093 3092 3092 3091 3090 3090 3089 3088 3087 3086 3085 3084 3083 3083 3082 3080 3079 3078 3077 3076 3075 3074 3073 3072 3071 3069 3069 3068 3067 3066 3064 3063 3062 3061 3060 3059 3058 3057 3057 3056 3056 3055 3055 3054 3053 3053 3054 3054 3054 3055 3055 3056 3057 3057 3058 3058 3059
3095 3095 3095 3096 3096 3096 3097 3097 3097 3097 3097 3097 3098 3098 3098 3097 3097 3097 3097 3097 3097 3097 3096 3096 3095 3095 3095 3094 3093 3093 3092 3091 3091 3090 3089 3088 3088 3087 3086 3085 3084 3083 3082 3081 3080 3079 3077 3076 3075 3074 3073 3072 3070 3069 3068 3067 3066 3065 3064 3062 3061 3060 3059 3058 3057 3056 3056 3055 3055 3054 3054 3053 3053 3052 3053 3053 3053 3054 3054 3055 3055 3056 3056 3056 3057
3095 3095 3096 3096 3097 3097 3097 3098 3098 3098 3098 3099 3099 3099 3099 3099 3098 3098 3097 3097 3097 3097 3096 3096 3096 3095 3095 3094 3094 3093 3092 3092 3091 3091 3090 3089 3088 3087 3086 3085 3084 3083 3082 3081 3080 3079 3077 3076 3075 3074 3073 3071 3070 3069 3067 3066 3065 3063 3062 3061 3060 3059 3058 3056 3055 3055 3054 3054 3053 3053 3052 3052 3052 3051 3051 3052 3052 3053 3053 3053 3054 3055 3055 3055 3055
3095 3096 3096 3097 3097 3098 3098 3099 3099 3099 3099 3100 3100 3099 3099 3099 3099 3099 3098 3098 3097 3097 3097 3096 3096 3096 3095 3094 3094 3093 3093 3092 3091 3091 3090 3089 3088 3087 3086 3085 3084 3083 3082 3081 3079 3078 3077 3076 3075 3073 3072 3071 3070 3068 3067 3065 3064 3062 3061 3060 3059 3058 3056 3055 3054 3054 3053 3052 3052 3051 3051 3051 3051 3050 3050 3050 3051 3051 3052 3052 3052 3053 3054 3054 3055
3096 3096 3097 3098 3098 3099 3099 3099 3100 3100 3100 3100 3100 3100 3099 3099 3099 3099 3099 3098 3098 3097 3097 3097 3096 3096 3095 3095 3094 3093 3093 3092 3091 3090 3090 3089 3088 3087 3086 3085 3083 3082 3081 3080 3079 3078 3076 3075 3074 3072 3071 3070 3068 3067 3066 3064 3063 3061 3060 3059 3058 3056 3055 3054 3053 3052 3052 3051 3050 3050 3049 3049 3049 3049 3049 3049 3049 3050 3050 3050 3050 3051 3052 3053 3053
3097 3097 3098 3099 3099 3099 3100 3100 3100 3100 3100 3100 3100 3100 3100 3099 3099 3099 3099 3099 3098 3098 3097 3097 3096 3095 3095 3095 3094 3093 3092 3092 3091 3090 3089 3088 3087 3086 3085 3084 3083 3082 3081 3079 3078 3077 3075 3074 3073 3071 3070 3068 3067 3066 3064 3063 3062 3060 3059 3058 3056 3055 3054 3053 3052 3051 3050 3050 3049 3048 3048 3048 3047 3048 3048 3048 3048 3048 3048 3048 3049 3050 3051 3051 3052
3098 3098 3099 3099 3099 3100 3100 3100 3100 3100 3100 3100 3100 3100 3100 3100 3099 3099 3098 3098 3098 3098 3097 3096 3096 3095 3095 3094 3094 3093 3092 3091 3090 3090 3089 3088 3087 3086 3085 3083 3082 3081 3080 3079 3077 3076 3075 3073 3072 3071 3069 3068 3066 3065 3063 3062 3061 3060 3058 3057 3056 3054 3054 3053 3052 3051 3050 3049 3048 3047 3047 3046 3046 3046 3047 3047 3047 3047 3047 3047 3048 3049 3049 3049 3049
3098 3099 3099 3100 3100 3100 3100 3100 3100 3100 3101 3100 3100 3100 3100 3099 3099 3099 3098 3098 3098 3097 3097 3096 3095 3095 3094 3094 3093 3092 3092 3091 3090 3089 3088 3087 3086 3085 3084 3083 3081 3080 3079 3078 3076 3075 3074 3073 3071 3070 3069 3067 3066 3064 3063 3061 3060 3059 3058 3056 3055 3054 3053 3052 3051 3050 3049 3048 3047 3047 3046 3046 3045 3045 3045 3045 3046 3046 3046 3047 3047 3047 3047 3048 3048
3099 3099 3100 3100 3100 3100 3100 3100 3101 3101 3101 3100 3100 3100 3100 3099 3099 3098 3098 3097 3097 3096 3096 3095 3094 3094 3093 3093 3092 3091 3090 3090 3089 3089 3087 3086 3085 3084 3083 3082 3081 3080 3078 3077 3076 3075 3073 3072 3071 3069 3068 3067 3066 3065 3063 3061 3059 3058 3057 3056 3055 3054 3053 3051 3050 3049 3049 3048 3047 3046 3045 3045 3045 3045 3044 3044 3045 3045 3045 3046 3046 3046 3046 3047 3048
3099 3099 3100 3100 3100 3100 3100 3100 3100 3100 3100 3101 3101 3100 3100 3099 3098 3098 3097 3096 3096 3095 3095 3094 3093 3093 3093 3092 3091 3090 3089 3089 3089 3088 3087 3086 3085 3084 3082 3081 3081 3079 3078 3077 3076 3074 3073 3072 3070 3069 3067 3066 3065 3064 3063 3061 3059 3058 3057 3055 3054 3053 3052 3051 3050 3049 3048 3047 3046 3046 3045 3045 3044 3044 3044 3044 3044 3044 3044 3045 3045 3045 3046 3047 3047
3099 3100 3100 3100 3100 3100 3100 3101 3101 3100 3100 3100 3100 3100 3100 3099 3098 3097 3096 3096 3095 3094 3094 3093 3093 3092 3092 3091 3091 3090 3089 3088 3088 3087 3086 3085 3084 3083 3082 3081 3080 3079 3078 3076 3075 3074 3072 3071 3070 3068 3067 3065 3064 3062 3061 3060 3059 3058 3056 3055 3054 3053 3052 3051 3050 3049 3048 3047 3046 3045 3045 3044 3044 3043 3043 3043 3043 3043 3043 3044 3044 3045 3045 3046 3046
3099 3100 3100 3100 3100 3100 3100 3100 3100 3100 3100 3100 3100 3099 3099 3098 3098 3097 3096 3096 3095 3094 3093 3093 3092 3091 3091 3090 3089 3089 3088 3087 3087 3086 3085 3084 3083 3083 3082 3081 3079 3078 3077 3076 3074 3073 3072 3070 3069 3067 3066 3065 3063 3062 3060 3059 3058 3057 3056 3054 3053 3052 3051 3050 3049 3048 3047 3046 3045 3044 3044 3043 3043 3043 3042 3042 3042 3042 3043 3043 3044 3044 3045 3045 3045
3099 3100 3100 3100 3100 3100 3100 3100 3100 3100 3100 3099 3099 3099 3098 3097 3097 3096 3096 3095 3094 3094 3093 3092 3092 3091 3090 3089 3088 3088 3087 3086 3085 3084 3083 3083 3082 3082 3081 3080 3079 3077 3076 3075 3074 3073 3071 3070 3068 3067 3065 3063 3062 3061 3060 3058 3057 3056 3055 3054 3053 3051 3050 3049 3048 3047 3046 3046 3045 3044 3043 3043 3042 3042 3042 3042 3042 3042 3042 3043 3043 3044 3044 3044 3045
3099 3099 3100 3100 3100 3100 3099 3099 3099 3099 3099 3098 3098 3098 3097 3097 3096 3096 3095 3095 3094 3093 3092 3092 3091 3090 3090 3089 3088 3087 3086 3085 3084 3082 3081 3081 3081 3080 3080 3079 3078 3076 3075 3074 3073 3072 3071 3069 3068 3066 3065 3063 3061 3060 3059 3058 3056 3055 3054 3053 3052 3050 3049 3048 3047 3046 3045 3045 3044 3043 3042 3042 3042 3042 3042 3042 3042 3042 3042 3042 3043 3043 3043 3043 3043
3099 3099 3099 3099 3099 3099 3099 3099 3098 3098 3098 3097 3097 3097 3096 3096 3095 3095 3095 3094 3094 3093 3092 3091 3090 3090 3089 3088 3087 3086 3085 3084 3083 3082 3081 3080 3079 3079 3078 3078 3076 3075 3074 3073 3071 3070 3069 3068 3067 3065 3064 3062 3061 3059 3058 3056 3055 3054 3053 3052 3051 3049 3048 3047 3046 3045 3044 3043 3043 3042 3042 3041 3041 3041 3041 3041 3041 3041 3041 3041 3041 3041 3042 3042 3042